Back to catalog

METEOSAT 8

MSG 1

AliveWeatherGEO
NORAD 27509·PAYLOAD·🇪🇺 EU

Launched Aug 28, 2002 from Guiana Space Centre

Loading…

TLE

FreshSource: Space-Track

Epoch: Sep 14, 2026, 13:56 UTC

1 27509U 02040B   26257.58099437 -.00000107  00000-0  00000-0 0  9995
2 27509  11.4293  40.5136 0013718  78.5501 113.3798  0.97904263 87816

Track METEOSAT 8 in real time with AllMySat

Download on the App Store